Date String (YYYY-MM-DD hh:mm:ss) UTC,Instrument flags,Ambient pressure (hPa),Sample flow (lpm),Bypass flow (lpm),Sample temperature (°C),Ambient temperature (°C),ASC tube jacket temperature (°C),LED temperature (°C),Box temperature (°C),Sample RH (%),Span deviation,Mass concentration (μg/m³),Mass concentration (μg/m³),Mass concentration (μg/m³)
DateTimeUTC,F1_M11,P_M11,Q1_M11,Q2_M11,T1_M11,T2_M11,T3_M11,T4_M11,T5_M11,U1_M11,ZSPAN_M11,X0_M11,X2_M11,X1_M11
2022-11-01 08:00:00,,0824.1,5.00,0.00,28.4,26.7,00.0,37.3,30.1,09.5,0000.0,0002.67,0002.11,0001.87
2022-11-01 08:01:00,,0824.1,5.01,0.00,28.4,26.6,00.0,37.3,30.1,09.5,0000.0,0002.59,0002.08,0001.87
2022-11-01 08:02:00,,0824.1,5.00,0.00,28.4,26.6,00.0,37.3,30.1,09.5,0000.0,0002.59,0002.08,0001.87
2022-11-01 08:03:00,,0824.1,4.99,0.00,28.4,26.6,00.0,37.3,30.1,09.5,0000.0,0002.63,0002.09,0001.87
2022-11-01 08:04:00,,0824.1,5.01,0.00,28.4,26.7,00.0,37.3,30.2,09.5,0000.0,0002.64,0002.09,0001.88
2022-11-01 08:05:00,,0824.1,5.01,0.00,28.4,26.7,00.0,37.3,30.1,09.5,0000.0,0002.66,0002.11,0001.88
2022-11-01 08:06:00,,0824.1,4.99,0.00,28.4,26.6,00.0,37.3,30.1,09.5,0000.0,0002.63,0002.09,0001.88
2022-11-01 08:07:00,,0824.1,5.00,0.00,28.4,26.7,00.0,37.3,30.1,09.5,0000.0,0002.69,0002.09,0001.87
2022-11-01 08:08:00,,0824.1,5.00,0.00,28.4,26.6,00.0,37.3,30.1,09.4,0000.0,0002.95,0002.12,0001.87
2022-11-01 08:09:00,,0824.1,5.00,0.00,28.3,26.6,00.0,37.3,30.1,09.5,0000.0,0003.11,0002.13,0001.86
2022-11-01 08:10:00,,0824.1,5.00,0.00,28.3,26.6,00.0,37.2,30.0,09.5,0000.0,0003.01,0002.08,0001.85
2022-11-01 08:11:00,,0824.1,5.01,0.00,28.3,26.6,00.0,37.2,30.0,09.5,0000.0,0003.05,0002.10,0001.87
2022-11-01 08:12:00,,0824.1,5.00,0.00,28.3,26.6,00.0,37.2,30.0,09.6,0000.0,0003.25,0002.12,0001.89
2022-11-01 08:13:00,,0824.1,5.00,0.00,28.3,26.5,00.0,37.2,29.9,09.5,0000.0,0004.45,0002.10,0001.88
2022-11-01 08:14:00,,0824.1,5.00,0.00,28.3,26.5,00.0,37.2,30.0,09.4,0000.0,0004.40,0002.08,0001.88
2022-11-01 08:15:00,,0824.1,5.00,0.00,28.3,26.5,00.0,37.2,30.0,09.3,0000.0,0004.39,0002.06,0001.86
2022-11-01 08:16:00,,0824.1,5.00,0.00,28.2,26.5,00.0,37.2,30.0,09.3,0000.0,0004.33,0002.04,0001.85
2022-11-01 08:17:00,,0824.1,4.99,0.00,28.2,26.5,00.0,37.2,30.0,09.2,0000.0,0004.34,0002.05,0001.86
2022-11-01 08:18:00,,0824.1,5.00,0.00,28.2,26.4,00.0,37.2,29.9,09.2,0000.0,0004.34,0002.05,0001.85
2022-11-01 08:19:00,,0824.1,5.00,0.00,28.2,26.4,00.0,37.2,29.9,09.1,0000.0,0004.08,0002.04,0001.85
2022-11-01 08:20:00,,0824.1,5.00,0.00,28.2,26.4,00.0,37.1,29.9,09.1,0000.0,0003.95,0002.04,0001.85
2022-11-01 08:21:00,,0824.1,5.00,0.00,28.2,26.4,00.0,37.1,29.8,09.1,0000.0,0004.03,0002.06,0001.86
2022-11-01 08:22:00,,0824.2,5.00,0.00,28.2,26.3,00.0,37.1,29.8,09.1,0000.0,0003.99,0002.05,0001.85
2022-11-01 08:23:00,,0824.2,5.00,0.00,28.1,26.3,00.0,37.1,29.8,09.1,0000.0,0003.97,0002.03,0001.83
2022-11-01 08:24:00,,0824.2,5.00,0.00,28.1,26.3,00.0,37.1,29.8,09.1,0000.0,0003.08,0002.06,0001.83
2022-11-01 08:25:00,,0824.2,5.01,0.00,28.1,26.3,00.0,37.1,29.8,09.1,0000.0,0003.66,0002.09,0001.83
2022-11-01 08:26:00,,0824.2,5.00,0.00,28.1,26.3,00.0,37.1,29.9,09.1,0000.0,0003.78,0002.14,0001.84
2022-11-01 08:27:00,,0824.3,5.00,0.00,28.1,26.3,00.0,37.1,29.8,09.1,0000.0,0003.82,0002.16,0001.85
2022-11-01 08:28:00,,0824.2,5.00,0.00,28.1,26.3,00.0,37.1,29.8,09.1,0000.0,0003.86,0002.17,0001.85
2022-11-01 08:29:00,,0824.2,4.99,0.00,28.1,26.3,00.0,37.0,29.7,09.1,0000.0,0003.92,0002.19,0001.87
2022-11-01 08:30:00,,0824.1,5.00,0.00,28.1,26.3,00.0,37.0,29.8,09.1,0000.0,0003.88,0002.18,0001.87
2022-11-01 08:31:00,,0824.2,5.00,0.00,28.1,26.3,00.0,37.0,29.8,09.1,0000.0,0003.81,0002.17,0001.88
2022-11-01 08:32:00,,0824.2,5.00,0.00,28.1,26.3,00.0,37.0,29.7,09.1,0000.0,0004.21,0002.22,0001.90
2022-11-01 08:33:00,,0824.1,5.00,0.00,28.1,26.3,00.0,37.0,29.8,09.1,0000.0,0005.11,0002.28,0001.92
2022-11-01 08:34:00,,0824.1,5.00,0.00,28.0,26.3,00.0,37.0,29.7,09.1,0000.0,0005.30,0002.32,0001.93
2022-11-01 08:35:00,,0824.1,5.00,0.00,28.0,26.3,00.0,37.0,29.7,09.1,0000.0,0004.93,0002.33,0001.95
2022-11-01 08:36:00,,0824.1,5.01,0.00,28.0,26.3,00.0,37.0,29.7,09.1,0000.0,0004.35,0002.34,0001.96
2022-11-01 08:37:00,,0824.1,4.99,0.00,28.0,26.3,00.0,37.0,29.7,09.1,0000.0,0004.28,0002.33,0001.97
2022-11-01 08:38:00,,0824.1,5.00,0.00,28.0,26.3,00.0,37.0,29.7,09.1,0000.0,0004.51,0002.39,0001.98
2022-11-01 08:39:00,,0824.1,5.00,0.00,28.0,26.2,00.0,37.0,29.7,09.1,0000.0,0004.50,0002.39,0001.98
2022-11-01 08:40:00,,0824.1,5.00,0.00,28.0,26.2,00.0,36.9,29.7,09.1,0000.0,0004.57,0002.37,0001.98
2022-11-01 08:41:00,,0824.1,4.99,0.00,28.0,26.2,00.0,36.9,29.7,09.1,0000.0,0004.79,0002.38,0001.97
2022-11-01 08:42:00,,0824.1,4.99,0.00,28.0,26.2,00.0,36.9,29.7,09.1,0000.0,0004.85,0002.39,0001.97
2022-11-01 08:43:00,,0824.1,5.00,0.00,28.0,26.2,00.0,36.9,29.7,09.1,0000.0,0004.38,0002.33,0001.95
2022-11-01 08:44:00,,0824.1,5.01,0.00,28.0,26.2,00.0,36.9,29.7,09.1,0000.0,0003.60,0002.31,0001.95
2022-11-01 08:45:00,,0824.1,5.00,0.00,28.0,26.2,00.0,36.9,29.7,09.1,0000.0,0003.52,0002.30,0001.94
2022-11-01 08:46:00,,0824.1,5.00,0.00,28.0,26.2,00.0,36.9,29.7,09.1,0000.0,0003.60,0002.31,0001.94
2022-11-01 08:47:00,,0824.1,5.00,0.00,28.0,26.2,00.0,36.9,29.7,09.1,0000.0,0003.73,0002.35,0001.94
2022-11-01 08:48:00,,0824.1,5.00,0.00,27.9,26.2,00.0,36.9,29.7,09.1,0000.0,0003.72,0002.35,0001.94
2022-11-01 08:49:00,,0824.1,4.99,0.00,27.9,26.2,00.0,36.9,29.5,09.1,0000.0,0003.47,0002.29,0001.93
2022-11-01 08:50:00,,0824.1,4.99,0.00,27.9,26.1,00.0,36.9,29.6,09.1,0000.0,0003.61,0002.32,0001.94
2022-11-01 08:51:00,,0824.1,5.00,0.00,27.9,26.1,00.0,36.9,29.6,09.1,0000.0,0004.28,0002.37,0001.95
2022-11-01 08:52:00,,0824.1,5.01,0.00,27.9,26.1,00.0,36.8,29.6,09.1,0000.0,0004.25,0002.42,0001.97
2022-11-01 08:53:00,,0824.1,5.01,0.00,27.9,26.1,00.0,36.8,29.6,09.1,0000.0,0004.47,0002.43,0001.98
2022-11-01 08:54:00,,0824.1,4.99,0.00,27.9,26.1,00.0,36.8,29.6,09.1,0000.0,0004.72,0002.51,0001.99
2022-11-01 08:55:00,,0824.0,5.00,0.00,27.9,26.1,00.0,36.8,29.6,09.1,0000.0,0004.83,0002.55,0002.01
2022-11-01 08:56:00,,0824.1,4.99,0.00,27.9,26.1,00.0,36.8,29.6,09.1,0000.0,0004.78,0002.54,0002.03
2022-11-01 08:57:00,,0824.1,5.01,0.00,27.8,26.1,00.0,36.8,29.6,09.1,0000.0,0004.77,0002.57,0002.02
2022-11-01 08:58:00,,0824.1,5.01,0.00,27.9,26.1,00.0,36.8,29.6,09.1,0000.0,0004.71,0002.56,0002.02
2022-11-01 08:59:00,,0824.2,4.99,0.00,27.8,26.1,00.0,36.8,29.5,09.1,0000.0,0004.74,0002.55,0002.01
